TimeEDT,TemperatureF,Dew PointF,Humidity,Sea Level PressureIn,VisibilityMPH,Wind Direction,Wind SpeedMPH,Gust SpeedMPH,PrecipitationIn,Events,Conditions,WindDirDegrees,DateUTC
12:51 AM,27.0,19.0,72,29.93,6.0,West,11.5,18.4,0.00,Snow,Light Snow,260,2013-03-22 04:51:00
1:51 AM,27.0,18.0,69,29.94,9.0,West,11.5,19.6,0.00,Snow,Light Snow,260,2013-03-22 05:51:00
2:51 AM,27.0,18.0,69,29.94,9.0,West,10.4,19.6,0.00,Snow,Light Snow,260,2013-03-22 06:51:00
3:51 AM,27.0,18.0,69,29.94,10.0,West,15.0,19.6,0.00,,Mostly Cloudy,270,2013-03-22 07:51:00
4:51 AM,26.1,16.0,66,29.93,10.0,West,12.7,-,N/A,,Scattered Clouds,280,2013-03-22 08:51:00
5:51 AM,26.1,17.1,69,29.94,10.0,West,10.4,20.7,N/A,,Overcast,270,2013-03-22 09:51:00
6:51 AM,26.1,16.0,66,29.95,10.0,West,11.5,17.3,N/A,,Mostly Cloudy,270,2013-03-22 10:51:00
7:51 AM,25.0,16.0,69,29.98,10.0,West,10.4,-,N/A,,Overcast,280,2013-03-22 11:51:00
8:51 AM,26.1,17.1,69,29.99,10.0,West,11.5,-,N/A,,Overcast,280,2013-03-22 12:51:00
9:40 AM,26.6,17.6,69,29.93,9.0,West,13.8,-,N/A,,Mostly Cloudy,270,2013-03-22 13:40:00
9:51 AM,28.0,17.1,63,30.00,10.0,West,8.1,20.7,N/A,,Mostly Cloudy,270,2013-03-22 13:51:00
10:51 AM,28.0,17.1,63,30.00,8.0,West,11.5,-,0.00,Snow,Light Snow,280,2013-03-22 14:51:00
11:51 AM,28.9,17.1,61,30.01,7.0,West,12.7,19.6,0.00,Snow,Light Snow,270,2013-03-22 15:51:00
12:51 PM,28.9,17.1,61,30.01,7.0,West,13.8,-,0.00,Snow,Light Snow,270,2013-03-22 16:51:00
1:13 PM,28.4,17.6,64,29.95,8.0,West,13.8,18.4,0.00,Snow,Light Snow,260,2013-03-22 17:13:00
1:51 PM,28.9,17.1,61,30.02,7.0,West,15.0,-,0.00,Snow,Light Snow,280,2013-03-22 17:51:00
2:51 PM,33.1,15.1,48,30.00,10.0,WNW,16.1,23.0,0.00,,Mostly Cloudy,290,2013-03-22 18:51:00
3:51 PM,33.1,17.1,52,30.00,10.0,WNW,12.7,-,N/A,,Overcast,290,2013-03-22 19:51:00
4:51 PM,33.1,17.1,52,30.01,10.0,West,13.8,-,N/A,,Overcast,280,2013-03-22 20:51:00
5:51 PM,34.0,18.0,52,30.01,10.0,NW,11.5,-,N/A,,Mostly Cloudy,320,2013-03-22 21:51:00
6:51 PM,33.1,18.0,54,30.01,10.0,NW,8.1,-,N/A,,Scattered Clouds,320,2013-03-22 22:51:00
7:51 PM,32.0,17.1,54,30.02,10.0,NNW,4.6,-,N/A,,Partly Cloudy,340,2013-03-22 23:51:00
8:51 PM,30.9,18.0,59,30.04,10.0,Calm,Calm,-,N/A,,Partly Cloudy,0,2013-03-23 00:51:00
9:51 PM,28.9,18.0,64,30.05,10.0,Calm,Calm,-,N/A,,Partly Cloudy,0,2013-03-23 01:51:00
10:51 PM,27.0,18.0,69,30.05,10.0,Calm,Calm,-,N/A,,Clear,0,2013-03-23 02:51:00
11:51 PM,26.1,18.0,71,30.05,10.0,Calm,Calm,-,N/A,,Clear,0,2013-03-23 03:51:00